STARLINK-34286, 65035

Orbit data source: Space-Track

STARLINK-34286, 65035 is a payload satellite owned by SpaceX/Seattle (US) in LEO that was launched on Wed, 30 Jul 2025 UTC via an FALCON 9 launch vehicle from the Air Force Eastern Test Range (AFETR). Payload-class satellites include a variety of spacecraft equipped with specific instruments for various scientific and technological missions. These include communications satellites like Starlink; space stations such as the ISS; scientific satellites like the Hubble; Earth observation satellites from companies like Planet Labs, Umbra, and HawkEye 360; GPS; miniature CubeSats for education and research; and military/defense satellites.

Loading next visibility...
Identifier
65035, 2025-161W
Orbit
LEO
Country
Flag of USUS
Related business
Manufacturer
SpaceX/Seattle
Mission
Operational Commercial Communications
Bus & Motor
STARLINK V2MO, Unknown motor
Mass
575 kg wet, ~530 kg dry
Launch date (UTC)
2025-07-30 (4 months ago)
Launch vehicle
FALCON 9
Launch site
Air Force Eastern Test Range (AFETR)
Object type
Payload
Rocket body
Debris
Shape & HBR
Box + 2 Pan, 17.7 m
Radar Cross Section
36.964 m², Large (>1 m²)

Expand to show TLE details & history
Last TLE update: 12 hours ago

TLE from 12 hours ago
0 STARLINK-34286
1 65035U 25161W   25342.53457887  .00041387  00000-0  14014-2 0  9992
2 65035  53.1587 357.6010 0001578  79.3433 280.7745 15.30205941 20276
Epoch: 2025-12-08T12:49Z
TLE epoch observation values (Epoch: 2025-12-08T12:49:47.614Z)
Latitude
-0.00005°
Longitude
87.62035°
Altitude
475.895 km
Speed
7.629 km/s
True Right ascension
23h 50m 24s
True Declination
0° 00' 00"
Sunlit
Object was in daylight at epoch
Visualization orbit readout
Latitude
Unknown
Longitude
Unknown
Altitude
Unknown
Speed
Unknown
Apparent Right ascension
Unknown
Apparent Declination
Unknown
Sunlit
N/A
Visualization observer readout
Local Sidereal Time
22:41:22
Azimuth
Unknown
Elevation
Unknown
Doppler factor
Unknown
Orbital elements
Apogee altitude
476.535 km
Perigee altitude
474.372 km
Semi-major axis
6,853.591 km
Eccentricity
0.00016
Inclination
53.1587°
RAAN
357.601°
Arg. of periapsis
79.3433°
True anomaly
280.75674°
Mean anomaly
280.7745°
Eccentric anomaly
280.76562°
Mean motion
3.8253 °/min
Orbital period
94.11 mins
BSTAR
0.0014014
Loading maneuver chart data...
Computing Atmospheric mass density...
Loading historical data...
Loading historical data...
Loading historical data...
Loading historical data...
Loading historical data...
Loading historical data...
Loading historical data...

Documentation

Showing up to 5 results
|